Overview Statistics Trail Chart Weather Telemetry Raw packets
 

This is the latest recevied weather packets stored in our database for station/object W7TRD. If no packets are shown the sender has not sent any weather packets the latest 10 day(s).

<< 26 27 28 29 30 31 32 >>
Time Temp. Humidity Pressure Rain* Wind** Luminosity Snow
1788442066 12.22° C 95% 1010.7 hPa 1.78 mm - 0 W/m² -
1788441761 12.22° C 95% 1010.7 hPa 0 mm - 0 W/m² -
1788441457 12.22° C 94% 1010.5 hPa 1.78 mm - 0 W/m² -
1788441156 12.78° C 93% 1010.5 hPa 3.05 mm - 0 W/m² -
1788440851 12.78° C 92% 1010.4 hPa 1.27 mm - 0 W/m² -
1788440546 12.78° C 91% 1010.6 hPa 1.78 mm - 0 W/m² -
1788440244 12.78° C 89% 1010.6 hPa 1.78 mm - 0 W/m² -
1788439939 13.33° C 88% 1010.6 hPa 0 mm - 0 W/m² -
1788439638 13.33° C 88% 1010.5 hPa 0 mm - 0 W/m² -
1788439334 13.33° C 87% 1010.5 hPa 0 mm - 0 W/m² -
1788439033 13.33° C 87% 1010.5 hPa 0 mm - 0 W/m² -
1788438732 13.33° C 87% 1010.6 hPa 0 mm - 0 W/m² -
1788438431 13.33° C 87% 1010.6 hPa 0 mm - 0 W/m² -
1788438126 13.33° C 88% 1010.7 hPa 0 mm - 0 W/m² -
1788437824 13.33° C 89% 1010.5 hPa 0 mm - 0 W/m² -
1788437521 13.33° C 89% 1010.8 hPa 0 mm - 0 W/m² -
1788437220 13.33° C 89% 1010.8 hPa 0 mm - 0 W/m² -
1788436914 13.33° C 89% 1010.8 hPa 0 mm - 0 W/m² -
1788436613 13.33° C 89% 1010.8 hPa 0 mm - 0 W/m² -
1788436309 13.33° C 90% 1010.9 hPa 0 mm - 0 W/m² -
1788436003 13.33° C 89% 1010.8 hPa 0 mm - 0 W/m² -
1788435698 13.33° C 89% 1010.7 hPa 0 mm - 0 W/m² -
1788435394 13.33° C 90% 1010.7 hPa 0 mm - 0 W/m² -
1788435090 13.33° C 89% 1010.8 hPa 0 mm - 0 W/m² -
1788434786 13.33° C 90% 1010.8 hPa 0 mm - 0 W/m² -

* Rain latest hour (hover to see other rain measurements)
** Current wind speed in m/s (hover to see current wind gust speed)